Dewpoint
60 62 68 68 61 57 46 44 45 51 47 52 51 50 53 56 55 56 65 63 65 64 66 68 74 73 73 73 71 71 72 74 74 75 74 74 74 74 75 75 75 74 74 75 75 75 74 75 75
60 64 65 66 55 46 45 47 45 47 49 50 52 52 55 55 59 61 62 63 64 63 65 66 72 73 73 72 73 73 72 74 74 75 74 74 74 75 74 74 73 74 75 74 74 74 74 73 73
66 64 63 58 56 45 44 46 48 50 55 53 51 54 57 58 60 61 63 62 62 63 66 69 71 72 72 71 72 73 74 74 74 75 74 74 75 74 74 74 74 74 74 73 73 73 74 73 73
62 64 62 57 50 46 45 44 44 46 53 51 52 55 57 60 60 62 62 60 61 62 65 70 71 71 71 71 71 72 73 73 74 74 74 74 74 74 74 74 73 74 73 73 74 74 74 74 73
62 62 59 55 46 46 46 51 53 51 49 52 54 54 56 59 61 61 61 59 59 62 64 66 70 70 69 71 71 71 70 73 73 73 73 74 74 74 73 73 73 73 72 73 74 74 73 73 73
62 62 53 50 46 46 48 49 52 48 48 53 53 54 55 60 58 59 59 58 59 61 63 63 69 69 69 69 70 70 66 68 73 73 73 74 73 73 73 73 73 72 72 72 73 74 73 73 72
61 56 55 53 48 48 47 48 46 47 48 52 54 53 54 57 58 59 61 61 62 60 62 66 67 69 69 68 69 70 70 66 70 72 73 75 73 73 73 73 72 72 72 71 71 72 73 73 72
59 59 54 53 50 48 48 47 50 48 47 51 54 52 54 57 59 60 60 60 61 59 63 68 70 70 70 71 70 73 71 72 72 73 73 74 73 73 73 75 74 72 72 71 71 72 73 73 74
59 60 55 55 53 50 50 48 49 50 47 51 51 55 55 55 60 63 64 62 68 65 62 64 68 69 71 71 71 73 73 73 73 73 75 74 72 71 71 74 74 73 73 73 74 75 75 75 75
62 58 55 62 59 52 50 48 48 48 48 48 51 55 53 55 59 59 60 63 60 66 65 64 67 70 71 67 72 72 72 73 74 72 74 73 73 70 63 70 75 75 76 76 76 76 77 76 70
63 58 60 61 60 60 50 48 48 50 46 50 52 52 53 54 57 58 59 63 66 70 66 66 67 71 72 69 71 71 70 72 74 73 74 73 70 71 67 69 70 73 75 71 73 73 72 71 72
58 60 60 58 59 57 56 56 51 54 56 50 52 52 52 54 53 58 65 64 64 68 64 63 67 68 70 70 71 72 72 71 70 72 74 76 72 74 73 72 72 74 73 72 72 70 71 67 66
56 58 59 59 57 59 62 57 56 52 52 50 52 52 51 55 56 58 62 65 66 68 69 66 70 70 70 73 71 72 72 71 71 72 74 74 74 72 71 70 72 72 71 71 72 72 71 70 68
56 56 57 58 56 58 57 57 57 50 50 49 51 51 50 52 55 58 59 64 64 66 67 66 69 70 71 71 71 71 68 69 70 73 74 70 73 74 72 70 74 72 73 73 73 76 74 71 68
55 54 55 55 58 58 57 56 57 61 51 49 48 49 49 49 51 53 56 59 61 62 68 68 68 68 73 74 74 74 72 65 71 72 77 68 75 74 66 68 71 73 74 74 74 74 73 72 69
53 55 54 59 57 59 56 53 58 61 60 52 52 52 51 52 50 52 54 57 60 60 65 68 64 68 72 75 72 70 70 69 73 70 74 75 75 77 74 73 72 70 73 73 72 72 71 69 68
54 51 52 55 58 58 55 55 59 62 60 57 54 54 56 58 55 53 53 55 58 63 65 65 67 67 70 74 72 72 73 73 72 70 72 76 75 75 74 72 67 70 71 73 71 72 73 69 70
50 47 52 54 56 56 55 56 59 61 61 59 58 53 53 53 53 54 53 54 56 62 65 67 67 72 74 73 73 73 72 72 74 72 71 73 75 75 77 70 65 69 69 69 76 77 75 74 73
47 46 49 56 55 52 53 54 56 59 60 61 60 59 55 54 54 55 53 54 57 62 64 68 72 74 73 71 71 71 69 73 75 71 73 73 74 76 76 70 67 68 67 68 77 76 74 71 74
38 46 51 54 52 53 52 52 55 57 58 58 59 59 61 59 56 57 56 56 61 63 65 68 72 74 74 73 75 72 72 71 74 71 74 75 73 75 72 77 66 66 66 73 77 77 65 66 72
29 32 46 48 50 50 52 52 53 55 59 60 60 60 62 60 61 56 58 60 62 65 66 69 73 74 74 76 73 71 74 72 72 72 74 73 73 75 76 76 77 69 66 65 74 76 74 66 74
25 32 41 49 47 47 51 47 53 52 55 58 58 59 59 61 61 59 56 57 62 66 67 70 73 74 73 76 74 75 72 70 72 74 73 73 73 74 73 74 76 75 68 72 76 75 77 76 72
27 34 36 38 38 39 47 49 51 54 53 56 58 57 59 62 60 63 56 59 60 63 65 68 72 74 75 75 75 74 73 72 70 73 75 75 76 75 73 74 75 77 75 76 77 77 76 77 75
26 26 32 33 33 32 35 44 50 53 53 55 57 57 57 62 62 63 62 62 59 61 64 68 72 74 75 75 74 75 73 69 72 74 73 71 73 73 75 73 75 76 77 77 76 78 78 77 76
23 23 22 26 26 28 43 41 43 53 53 54 54 56 56 61 61 64 55 66 64 62 64 66 72 73 73 73 73 74 74 74 74 72 72 73 71 72 75 77 77 76 76 76 77 78 77 77 75
18 19 19 30 34 37 45 42 51 48 50 52 55 55 57 58 61 62 61 64 63 64 66 67 71 72 72 72 74 74 75 73 73 73 73 70 69 68 74 76 76 75 75 75 77 75 75 74 76
16 18 18 32 32 32 41 48 53 50 51 54 57 58 58 57 60 63 66 64 64 65 66 70 71 72 73 71 75 74 74 75 75 75 74 74 70 70 69 73 75 74 74 75 77 75 75 76 76
12 26 28 30 31 31 39 47 51 56 53 53 54 54 56 58 58 63 62 62 61 64 68 70 71 72 72 71 72 71 73 74 75 76 70 71 75 74 73 72 74 74 75 74 77 75 74 74 74
15 22 27 27 46 35 41 47 55 55 55 57 54 54 55 58 59 63 62 65 64 66 66 69 71 72 71 71 70 73 73 72 73 74 74 75 75 75 77 75 75 74 73 75 77 76 75 72 73
20 23 21 26 35 39 35 46 54 51 55 58 59 58 56 59 58 66 64 66 66 67 70 68 70 71 71 71 72 72 72 74 73 73 73 75 75 76 76 77 76 76 76 76 72 74 73 74 71
Lifted_Index
-2 -3 -4 -3 -2 -2 -1 -1 -1 -1 -1 -1 -1 -1 -1 -2 -2 -2 -2 -2 -2 -2 -2 -2 -3 -3 -2 -2 -1 -2 -2 -3 -4 -4 -4 -4 -4 -4 -4 -4 -4 -4 -5 -5 -5 -5 -5 -5 -5
-2 -3 -3 -2 -1 -2 -1 -1 -1 -1 -1 -1 -1 -1 -2 -2 -2 -2 -2 -1 -1 -1 -1 -2 -2 -2 -2 -2 -2 -2 -3 -3 -4 -4 -4 -4 -4 -4 -4 -4 -4 -4 -5 -5 -5 -5 -5 -5 -4
-2 -3 -3 -2 -1 -2 -1 -1 -1 -1 -1 -1 -1 -1 -2 -2 -2 -2 -1 -1 -0 -1 -1 -2 -2 -2 -2 -1 -2 -2 -3 -3 -4 -4 -4 -4 -4 -4 -4 -4 -4 -4 -4 -4 -4 -5 -5 -4 -4
-3 -3 -3 -3 -2 -1 -1 -0 -0 -1 -1 -1 -1 -2 -2 -2 -2 -1 -1 -0 0 0 -1 -1 -2 -1 -1 -1 -1 -2 -2 -3 -4 -4 -4 -4 -4 -4 -4 -4 -4 -4 -4 -4 -5 -5 -5 -5 -4
-3 -3 -3 -2 -1 -1 -0 -0 -0 -1 -1 -1 -1 -1 -2 -1 -1 -1 -1 0 1 1 0 -1 -1 -0 -0 -0 -1 -1 -1 -2 -3 -4 -4 -4 -4 -4 -4 -4 -4 -4 -4 -4 -5 -5 -5 -5 -5
-3 -2 -1 -1 -1 -0 0 -0 -0 -0 -0 -1 -1 -1 -1 -1 -1 -1 -0 0 1 1 1 0 0 0 0 0 -0 0 0 -0 -2 -3 -4 -4 -4 -4 -4 -4 -4 -4 -4 -4 -4 -5 -4 -5 -5
-3 -2 -1 -1 -1 -1 -0 0 -0 -0 -0 -1 -1 -1 -1 -1 -1 -1 -0 0 1 1 1 0 -0 0 0 0 0 -0 0 -0 -2 -3 -4 -4 -3 -3 -4 -4 -4 -4 -4 -4 -4 -4 -4 -4 -5
-3 -3 -2 -1 -2 -1 -0 -0 -0 -0 -0 -0 -1 -1 -1 -1 -1 -1 -1 -0 -0 1 1 -0 -1 -0 -0 -0 -0 -1 -1 -2 -3 -3 -4 -4 -3 -3 -4 -4 -4 -4 -4 -3 -3 -4 -4 -4 -5
-3 -3 -2 -1 -2 -2 -1 -0 0 -0 -0 -0 -1 -1 -1 -1 -2 -2 -2 -1 -1 -0 0 -0 -1 -1 -0 -0 -0 -1 -2 -3 -3 -4 -4 -4 -3 -3 -3 -3 -4 -4 -4 -4 -4 -4 -5 -5 -5
-2 -2 -2 -1 -1 -2 -1 -0 0 0 -0 -0 -1 -1 -1 -1 -2 -2 -3 -2 -1 -1 -0 -0 -0 -0 -0 0 0 -1 -1 -2 -3 -3 -4 -3 -3 -2 -2 -2 -3 -4 -4 -4 -5 -5 -5 -6 -6
-1 -2 -2 -1 -1 -2 -1 -1 -0 -0 -0 -0 -1 -1 -1 -1 -2 -2 -3 -2 -2 -1 -0 0 0 -0 -0 -0 -0 -1 -2 -2 -3 -3 -4 -4 -3 -2 -2 -3 -3 -4 -5 -5 -5 -5 -5 -5 -6
-1 -2 -2 -2 -1 -2 -2 -1 -1 -0 -0 -0 -1 -1 -1 -1 -2 -2 -3 -3 -2 -2 -1 0 0 -0 -1 -1 -2 -2 -3 -3 -3 -3 -4 -4 -3 -3 -3 -4 -4 -4 -5 -5 -5 -5 -5 -5 -5
-2 -1 -1 -1 -2 -2 -2 -1 -1 -0 -0 -0 -0 -0 -1 -1 -2 -2 -3 -3 -3 -3 -2 -1 -1 -1 -2 -2 -3 -3 -3 -2 -3 -3 -3 -3 -3 -3 -3 -3 -4 -4 -4 -4 -4 -5 -5 -5 -4
-1 -1 -1 -1 -1 -1 -1 -1 -1 -1 -0 0 0 -0 -0 -1 -1 -2 -2 -3 -3 -3 -3 -3 -3 -3 -3 -3 -3 -3 -2 -2 -3 -3 -3 -3 -3 -3 -2 -3 -3 -4 -4 -4 -4 -5 -5 -5 -5
-1 -1 -1 -1 -1 -0 -1 -1 -1 -1 -0 0 0 0 -0 -0 -1 -1 -1 -2 -3 -3 -4 -4 -3 -3 -4 -4 -3 -2 -1 -2 -2 -3 -3 -3 -4 -4 -3 -3 -3 -4 -4 -4 -4 -5 -5 -5 -5
-1 -2 -1 -1 -1 -1 -0 -0 -1 -1 -1 -0 -0 -0 -1 -1 -0 -0 -0 -1 -2 -2 -3 -3 -3 -4 -4 -4 -3 -2 -2 -2 -2 -3 -3 -4 -4 -5 -3 -3 -3 -4 -4 -4 -5 -5 -5 -5 -4
-1 -1 -2 -2 -2 -2 -1 -1 -1 -1 -1 -1 -1 -1 -1 -1 -1 -0 0 -0 -1 -2 -2 -3 -3 -4 -4 -4 -3 -3 -3 -3 -2 -2 -2 -3 -4 -5 -4 -3 -2 -3 -3 -4 -6 -7 -6 -5 -5
-1 -1 -1 -2 -2 -2 -2 -1 -1 -1 -1 -1 -1 -1 -1 -1 -1 -0 0 0 -0 -1 -2 -3 -3 -4 -5 -4 -4 -3 -3 -3 -3 -2 -2 -3 -4 -5 -5 -3 -1 -1 -2 -5 -7 -8 -7 -6 -6
-1 -1 -1 -2 -2 -2 -2 -1 -0 -0 -0 -1 -1 -1 -1 -1 -1 -0 0 0 -0 -1 -2 -3 -4 -4 -5 -5 -4 -3 -3 -3 -3 -3 -3 -3 -4 -5 -5 -4 -1 0 -1 -5 -8 -8 -6 -5 -6
-1 -2 -2 -3 -3 -2 -1 -1 0 0 -0 -1 -1 -1 -1 -1 -1 -1 -0 -1 -1 -2 -2 -3 -4 -5 -5 -5 -4 -3 -3 -3 -3 -3 -3 -3 -4 -5 -5 -5 -2 -0 -1 -5 -7 -7 -5 -4 -5
-0 -1 -3 -3 -3 -2 -2 -1 -0 0 0 -0 -1 -1 -1 -1 -1 -1 -1 -1 -2 -3 -3 -3 -4 -5 -5 -5 -4 -3 -3 -3 -3 -3 -4 -3 -4 -4 -5 -5 -4 -3 -3 -5 -6 -6 -5 -5 -5
0 -1 -2 -3 -3 -2 -2 -2 -2 -1 -0 -0 -1 -1 -1 -1 -1 -1 -1 -2 -2 -3 -3 -4 -5 -5 -5 -5 -4 -4 -3 -3 -3 -3 -4 -4 -3 -4 -5 -5 -5 -5 -5 -5 -6 -7 -7 -7 -7
-0 -1 -1 -2 -2 -2 -2 -3 -3 -2 -1 -0 -0 0 -0 -1 -1 -1 -1 -2 -2 -3 -4 -4 -5 -5 -5 -5 -4 -4 -3 -3 -3 -4 -4 -4 -4 -4 -4 -5 -5 -5 -5 -5 -6 -6 -7 -7 -7
0 -0 -1 -1 -1 -2 -2 -3 -3 -2 -1 -0 0 1 0 -1 -1 -1 -1 -1 -2 -3 -3 -4 -5 -5 -5 -5 -4 -4 -4 -3 -3 -4 -4 -4 -4 -4 -4 -4 -4 -5 -5 -5 -5 -6 -7 -7 -7
1 1 -0 -1 -1 -1 -2 -2 -3 -2 -1 -0 0 1 1 -1 -1 -1 -1 -2 -2 -2 -3 -4 -5 -5 -5 -4 -4 -4 -4 -4 -4 -4 -4 -3 -3 -3 -4 -4 -4 -4 -4 -4 -5 -5 -6 -6 -6
1 1 -0 -1 -1 -1 -2 -2 -2 -2 -2 -1 -0 1 1 -0 -1 -1 -2 -2 -2 -2 -3 -4 -4 -5 -4 -4 -4 -4 -4 -4 -4 -3 -3 -2 -2 -2 -3 -4 -4 -4 -4 -4 -5 -5 -5 -5 -5
1 0 -0 -1 -1 -1 -1 -2 -2 -2 -2 -2 -1 0 0 -1 -1 -1 -2 -2 -2 -2 -3 -4 -5 -5 -4 -4 -4 -4 -4 -4 -4 -3 -3 -2 -2 -2 -3 -3 -4 -4 -4 -4 -4 -4 -4 -4 -5
1 0 -1 -1 -1 -1 -1 -1 -2 -2 -3 -2 -1 -0 0 -0 -1 -1 -1 -1 -1 -2 -3 -4 -5 -5 -5 -4 -4 -4 -4 -4 -4 -3 -3 -3 -3 -3 -3 -3 -4 -4 -4 -4 -4 -4 -4 -4 -4
0 -0 -0 -1 -1 -1 -1 -1 -1 -2 -3 -3 -2 -1 -0 -0 -1 -1 -1 -1 -1 -1 -2 -4 -5 -5 -5 -4 -4 -4 -4 -4 -4 -4 -4 -4 -4 -4 -4 -4 -4 -4 -4 -4 -4 -4 -4 -3 -3
0 -0 -0 -1 -1 -1 -1 -0 0 -1 -3 -3 -2 -1 -1 -0 -1 -1 -1 -1 -1 -2 -3 -4 -4 -5 -5 -4 -4 -4 -4 -4 -4 -4 -4 -4 -4 -4 -5 -5 -5 -4 -4 -4 -4 -4 -4 -3 -3